Weather in Anantapur

India     14°40′43″N   77°36′35″E
temp.,
°C
wind,
m/s
gust,
m/s
humid.,
%
clouds,
%
prec.,
mm/h
press.,
hPa
HPBL,
m
12 may, wed
wed1223:30+29s7755100 3.7 1008504
02:30+29nw1158100 0.9 1006216
05:30+28sw336098 2.6 1006241
08:30+26e4570100 1.6 1009269
11:30+32ene2341100 1.9 1007934
14:30+35ese343446 0.0 10031469
17:30+36e3330100 0.0 10021616
20:30+34e3334100 0.0 1003242
13 may, thu
thu1323:30+31s7752100 0.2 1005584
02:30+29ssw81061100 0.3 1004566
05:30+29w5856100 0.3 1004508
08:30+31w5553100 0.0 1007973
11:30+34wnw3341100 0.0 10061866
14:30+37nne233396 0.1 10022746
17:30+33n664596 0.3 1001464
20:30+33nne344579 0.5 1003425
14 may, fri
fri1423:30+30ese2554100 0.7 1005457
02:30+31ese3450100 0.0 1002444
05:30+29se3558100 0.0 1002297
08:30+32sse5548100 0.0 1004892
11:30+36se5534100 0.0 10032059
14:30+39ese6724100 0.0 9993276
17:30+38ese7823100 0.0 9993245
20:30+33s81140100 0.0 1001733
15 may, sat
sat1523:30+33ssw463984 0.0 1002604
02:30+31sse3546100 0.0 1000484
05:30+30sse4748100 0.0 1001542
08:30+32se4543100 0.0 10041152
11:30+35ese6736100 0.0 10031915
14:30+36se5732100 0.0 9992741
17:30+31wsw775099 0.3 999429
20:30+31se2350100 1.9 1001165
16 may, sun
sun1623:30+29ssw1356100 3.1 1002442
02:30+29ssw4757100 1.4 1001616
05:30+28sse4660100 1.4 1001319
08:30+29sse5755100 0.0 10041070
11:30+28s7860100 0.0 1005929
14:30+28s6862100 0.1 1003919
17:30+28ssw6759100 0.1 10031065
20:30+26ssw5872100 0.7 1005496